User: anonymous   Login
Location: Auckland
(36.8670°S, 174.7670°E)
Time: 14:09:45
(UTC+12:00)
Language:

Transit 2A Rocket - Orbit

View from above orbital plane
View from above orbital plane
View from above satellite
View from above satellite

Ground track
Ground track

The orbit data is extracted from the following two-line orbital elements,

1    47U 60007C   19203.87871472 -.00000048 +00000-0 +14413-4 0  9993
2    47 066.6669 318.8629 0228983 187.0595 172.7270 14.42042687087016
Epoch (UTC): 22 July 2019 21:05:20
Eccentricity: 0.0228983
inclination: 66.6669°
perigee height: 588 km
apogee height: 915 km
right ascension of ascending node: 318.8629°
argument of perigee: 187.0595°
revolutions per day: 14.42042687
mean anomaly at epoch: 172.7270°
orbit number at epoch: 8701

The dashed part of the orbit path shows where the satellite is in the earth's shadow,  

DLR